Weather History for Wasilla, AK

Change the Weather History Date:

Sunday, May 12, 2013

  Actual Average Record
Temperature  
Mean Temperature 46 °F -  
Max Temperature 51 °F 58 °F 72 °F (1968)
Min Temperature 42 °F 35 °F 24 °F (1964)
Degree Days  
Heating Degree Days 18    
Moisture  
Dew Point 39 °F    
Average Humidity 75    
Maximum Humidity 93    
Minimum Humidity 58    
Precipitation  
Precipitation 0.15 in - - ()
Sea Level Pressure  
Sea Level Pressure 29.51 in    
Wind  
Wind Speed 2 mph (SE)    
Max Wind Speed 7 mph    
Max Gust Speed -    
Visibility 10 miles    
Events      
Averages and records for this station are not official NWS values.
T = Trace of Precipitation, MM = Missing Value Source: NWS Daily Summary

Daily Weather History Graph

Daily Weather History Graph

Search for Another Location

Airport:

Trip Planner

Search our weather history database for the weather conditions in past years. The results will help you decide how hot, cold, wet, or windy it might be!

Date:

Astronomy

May. 12, 2013 Rise Set
Actual Time 5:14 AM AKDT 10:36 PM AKDT
Civil Twilight 4:05 AM AKDT 11:46 PM AKDT
Nautical Twilight 2:26 AM AKDT 1:22 AM AKDT
Astronomical Twilight Sun does not rise Sun does not rise
Moon 7:07 AM AKDT (5/12) 12:33 AM AKDT (5/12)
Length of Visible Light 19h 40m
Length of Day
17h 21m
Waxing Crescent, 7% of the Moon is Illuminated
May 12
Waxing Crescent
May 17
First Quarter
May 24
Full
May 31
Last Quarter
Jun 8
New

Hourly Weather History & Observations

Time (AKDT) Temp. Windchill Dew Point Humidity Pressure Visibility Wind Dir Wind Speed Gust Speed Precip Events Conditions
12:16 AM 48.2 °F - 33.8 °F 58% 29.57 in 10.0 mi East 3.5 mph - N/A   Overcast
12:36 AM 48.2 °F - 33.8 °F 58% 29.57 in 10.0 mi East 3.5 mph - N/A   Overcast
12:56 AM 48.2 °F - 33.8 °F 58% 29.57 in 10.0 mi East 3.5 mph - N/A   Overcast
1:36 AM 46.4 °F - 33.8 °F 62% 29.56 in 10.0 mi Calm Calm - N/A   Overcast
1:56 AM 46.4 °F - 33.8 °F 62% 29.56 in 10.0 mi Calm Calm - N/A   Overcast
2:16 AM 46.4 °F - 33.8 °F 62% 29.56 in 10.0 mi Calm Calm - N/A   Overcast
2:36 AM 46.4 °F 45.2 °F 35.6 °F 66% 29.56 in 10.0 mi East 3.5 mph - N/A   Overcast
2:56 AM 46.4 °F 45.2 °F 35.6 °F 66% 29.55 in 10.0 mi East 3.5 mph - N/A   Overcast
3:16 AM 46.4 °F 45.2 °F 35.6 °F 66% 29.55 in 10.0 mi East 3.5 mph - N/A   Overcast
3:36 AM 46.4 °F 45.2 °F 35.6 °F 66% 29.54 in 10.0 mi East 3.5 mph - N/A   Overcast
3:56 AM 46.4 °F 45.2 °F 35.6 °F 66% 29.54 in 10.0 mi ENE 3.5 mph - N/A   Overcast
4:16 AM 46.4 °F 45.2 °F 35.6 °F 66% 29.53 in 10.0 mi ENE 3.5 mph - N/A   Overcast
4:36 AM 46.4 °F - 35.6 °F 66% 29.53 in 10.0 mi Calm Calm - N/A   Overcast
4:56 AM 44.6 °F - 35.6 °F 71% 29.53 in 10.0 mi Calm Calm - N/A   Overcast
5:16 AM 44.6 °F - 35.6 °F 71% 29.53 in 10.0 mi Calm Calm - N/A   Overcast
5:36 AM 44.6 °F - 35.6 °F 71% 29.53 in 10.0 mi Calm Calm - N/A   Overcast
5:56 AM 42.8 °F - 37.4 °F 81% 29.53 in 10.0 mi Calm Calm - N/A   Overcast
6:16 AM 42.8 °F - 35.6 °F 76% 29.52 in 10.0 mi Calm Calm - N/A   Mostly Cloudy
6:36 AM 42.8 °F - 35.6 °F 76% 29.52 in 10.0 mi Calm Calm - N/A   Mostly Cloudy
6:56 AM 42.8 °F - 37.4 °F 81% 29.52 in 10.0 mi Calm Calm - N/A   Overcast
7:16 AM 42.8 °F - 37.4 °F 81% 29.52 in 10.0 mi Calm Calm - N/A   Overcast
7:36 AM 42.8 °F - 37.4 °F 81% 29.52 in 10.0 mi Calm Calm - N/A   Overcast
7:56 AM 42.8 °F - 37.4 °F 81% 29.52 in 10.0 mi Calm Calm - N/A   Overcast
8:16 AM 44.6 °F - 37.4 °F 76% 29.52 in 10.0 mi Calm Calm - N/A   Overcast
8:36 AM 44.6 °F - 37.4 °F 76% 29.52 in 10.0 mi Calm Calm - N/A   Overcast
8:56 AM 46.4 °F - 37.4 °F 71% 29.52 in 10.0 mi Calm Calm - N/A   Overcast
9:16 AM 46.4 °F - 37.4 °F 71% 29.52 in 10.0 mi Calm Calm - N/A   Overcast
9:36 AM 46.4 °F - 37.4 °F 71% 29.52 in 10.0 mi Calm Calm - N/A   Overcast
9:56 AM 46.4 °F 45.2 °F 37.4 °F 71% 29.52 in 10.0 mi ESE 3.5 mph - N/A   Overcast
10:16 AM 48.2 °F - 37.4 °F 66% 29.52 in 10.0 mi SE 4.6 mph - N/A   Overcast
10:36 AM 48.2 °F - 37.4 °F 66% 29.52 in 10.0 mi Calm Calm - N/A   Overcast
10:56 AM 48.2 °F - 37.4 °F 66% 29.52 in 10.0 mi SE 3.5 mph - N/A   Overcast
11:16 AM 48.2 °F - 37.4 °F 66% 29.52 in 10.0 mi ESE 3.5 mph - N/A   Overcast
11:36 AM 48.2 °F - 37.4 °F 66% 29.52 in 10.0 mi ESE 3.5 mph - N/A   Overcast
11:56 AM 48.2 °F - 37.4 °F 66% 29.52 in 10.0 mi NE 4.6 mph - N/A   Overcast
12:16 PM 48.2 °F - 39.2 °F 71% 29.52 in 10.0 mi Calm Calm - N/A   Overcast
12:36 PM 48.2 °F - 41.0 °F 76% 29.52 in 10.0 mi SE 3.5 mph - N/A   Overcast
12:56 PM 50.0 °F - 39.2 °F 66% 29.52 in 10.0 mi Calm Calm - N/A   Overcast
1:16 PM 50.0 °F - 39.2 °F 66% 29.51 in 10.0 mi Calm Calm - N/A   Overcast
1:36 PM 51.8 °F - 37.4 °F 58% 29.51 in 10.0 mi Calm Calm - N/A   Overcast
1:56 PM 50.0 °F - 37.4 °F 62% 29.52 in 10.0 mi Calm Calm - 0.01 in   Overcast
2:16 PM 50.0 °F - 41.0 °F 71% 29.51 in 10.0 mi East 3.5 mph - N/A   Overcast
2:36 PM 50.0 °F - 39.2 °F 66% 29.51 in 10.0 mi Calm Calm - N/A   Overcast
2:56 PM 50.0 °F - 41.0 °F 71% 29.51 in 10.0 mi Calm Calm - N/A   Overcast
3:16 PM 51.8 °F - 39.2 °F 62% 29.51 in 10.0 mi Calm Calm - 0.01 in   Overcast
3:36 PM 50.0 °F - 39.2 °F 66% 29.51 in 10.0 mi Calm Calm - 0.01 in   Overcast
3:56 PM 50.0 °F - 42.8 °F 76% 29.50 in 10.0 mi Calm Calm - 0.02 in   Overcast
4:16 PM 50.0 °F - 42.8 °F 76% 29.50 in 10.0 mi Calm Calm - N/A   Overcast
4:36 PM 48.2 °F - 44.6 °F 87% 29.50 in 10.0 mi South 3.5 mph - 0.01 in   Overcast
4:56 PM 48.2 °F - 44.6 °F 87% 29.49 in 10.0 mi South 4.6 mph - 0.01 in   Overcast
5:16 PM 48.2 °F - 44.6 °F 87% 29.49 in 10.0 mi Calm Calm - 0.01 in   Overcast
5:36 PM 48.2 °F - 44.6 °F 87% 29.49 in 9.0 mi South 3.5 mph - 0.02 in   Mostly Cloudy
5:56 PM 48.2 °F - 44.6 °F 87% 29.49 in 8.0 mi SSW 3.5 mph - 0.02 in   Overcast
6:16 PM 48.2 °F - 44.6 °F 87% 29.48 in 10.0 mi Calm Calm - 0.02 in   Mostly Cloudy
6:36 PM 48.2 °F - 44.6 °F 87% 29.48 in 10.0 mi Calm Calm - 0.02 in   Overcast
6:56 PM 48.2 °F - 44.6 °F 87% 29.48 in 10.0 mi SW 3.5 mph - 0.03 in   Overcast
7:16 PM 48.2 °F - 44.6 °F 87% 29.48 in 10.0 mi Calm Calm - 0.01 in   Overcast
7:36 PM 48.2 °F - 42.8 °F 82% 29.48 in 10.0 mi Calm Calm - 0.03 in   Overcast
7:56 PM 46.4 °F 45.2 °F 42.8 °F 87% 29.47 in 10.0 mi SW 3.5 mph - 0.04 in   Overcast
8:16 PM 46.4 °F - 44.6 °F 93% 29.47 in 10.0 mi Calm Calm - 0.01 in   Overcast
8:36 PM 46.4 °F 45.2 °F 42.8 °F 87% 29.47 in 10.0 mi South 3.5 mph - 0.01 in   Overcast
8:56 PM 46.4 °F 43.5 °F 42.8 °F 87% 29.46 in 10.0 mi South 5.8 mph - 0.01 in   Overcast
9:16 PM 44.6 °F 41.4 °F 42.8 °F 93% 29.46 in 10.0 mi South 5.8 mph - 0.01 in   Overcast
9:36 PM 44.6 °F 42.2 °F 42.8 °F 93% 29.46 in 10.0 mi SSE 4.6 mph - 0.01 in   Overcast
9:56 PM 44.6 °F - 41.0 °F 87% 29.47 in 10.0 mi Calm Calm - 0.01 in   Overcast
10:16 PM 44.6 °F - 41.0 °F 87% 29.46 in 10.0 mi Calm Calm - N/A   Overcast
10:36 PM 44.6 °F - 41.0 °F 87% 29.46 in 7.0 mi Calm Calm - N/A   Overcast
10:56 PM 44.6 °F - 41.0 °F 87% 29.46 in 10.0 mi Calm Calm - N/A   Overcast
11:16 PM 44.6 °F - 41.0 °F 87% 29.46 in 10.0 mi Calm Calm - N/A   Overcast
11:36 PM 44.6 °F - 41.0 °F 87% 29.46 in 10.0 mi Calm Calm - N/A   Overcast
11:56 PM 44.6 °F 40.7 °F 41.0 °F 87% 29.46 in 10.0 mi WNW 6.9 mph - N/A   Overcast